Find Starlink 11478

NORAD ID: 62557 Int'l Des: 2025-006 Owner: SPXS Country: US Constellation: starlink operational
LEOCIRCULAR

Current View

Loading 3D Globe...

About Starlink 11478

Starlink 11478 (NORAD 62557) is a starlink constellation satellite (v2 mini d2c) launched Jan 10, 2025 by SPXS of US. It operates in LEO, CIRCULAR orbit with a mass of 960.00 kg.

About Starlink 11478

Description loading...

Upcoming Passes

Passes for default location (London). Set your location on the main map for personalized predictions.

Altitude History

Loading altitude history...

Two-Line Element Set

1 62557U 25006D 26167.95181676 .00178789 00000-0 13614-2 0 9990
2 62557 42.9969 261.5884 0001201 328.0182 32.0612 15.70938877 82210
Epoch: Jun 16, 2026 • Age: 30 hours

Current Status

Altitude 354.9 km
Velocity 7.70 km/s
Sub-Earth Point 17.86°N, 80.39°E
Launch Date Jan 10, 2025
Age 1.4 years
Type internet

Technical Details

Classification Payload
Mass 960.00 kg
Dry Mass 910.00 kg
Total Mass 960.00 kg
Length 0.30 m
Diameter 4.10 m
Span 29.00 m
Shape Box + pan
Manufacturer SPXS
Bus Type Starlink V2MD
Phase Status In Orbit
Owner/State SPXS/US

Most Searched